UZB3110 UNKL-UNNT

Flight info

Callsign UZB3110
Flight time N/A
Altitude 34000
Route APRUS B926 NATIR
Aircraft A320/M-SDFGJ1IYRW/LB1

Departure

Time 2026-05-01 14:30
Airport Krasnoyarsk International Airport (UNKL)

Arrival

Time N/A
Airport Novosibirsk Tolmachevo Airport (UNNT)
Time Latitude Longitude Altitude Speed Heading
2026-05-01 13:58 56.18062 92.47528 951 ft 0 kts 202°
2026-05-01 14:15 56.18066 92.47531 951 ft 2 kts 202°
2026-05-01 14:15 56.18081 92.47542 950 ft 2 kts 202°
2026-05-01 14:15 56.18096 92.47555 950 ft 2 kts 192°
2026-05-01 14:15 56.18112 92.47557 950 ft 2 kts 162°
2026-05-01 14:16 56.18126 92.47543 949 ft 2 kts 107°
2026-05-01 14:16 56.18129 92.47528 949 ft 0 kts 116°
2026-05-01 14:18 56.18128 92.47531 949 ft 4 kts 116°
2026-05-01 14:18 56.18097 92.47651 950 ft 12 kts 113°
2026-05-01 14:18 56.18071 92.47759 950 ft 9 kts 112°
2026-05-01 14:18 56.18057 92.47823 951 ft 8 kts 112°
2026-05-01 14:19 56.18031 92.47932 950 ft 6 kts 112°
2026-05-01 14:19 56.17966 92.47982 951 ft 17 kts 207°
2026-05-01 14:19 56.17894 92.47915 951 ft 12 kts 182°
2026-05-01 14:19 56.17826 92.48023 951 ft 17 kts 113°
2026-05-01 14:20 56.17772 92.48253 950 ft 22 kts 113°
2026-05-01 14:20 56.17665 92.48694 951 ft 21 kts 114°
2026-05-01 14:20 56.17605 92.48946 951 ft 21 kts 113°
2026-05-01 14:21 56.17553 92.49169 951 ft 19 kts 113°
2026-05-01 14:21 56.17499 92.49401 949 ft 21 kts 112°
2026-05-01 14:21 56.17444 92.49629 951 ft 17 kts 113°
2026-05-01 14:22 56.17336 92.50075 950 ft 22 kts 113°
2026-05-01 14:22 56.17273 92.50340 951 ft 24 kts 113°
2026-05-01 14:22 56.17204 92.50627 951 ft 26 kts 113°
2026-05-01 14:22 56.17150 92.50855 951 ft 20 kts 113°
2026-05-01 14:23 56.17095 92.51087 950 ft 22 kts 113°
2026-05-01 14:23 56.17047 92.51287 951 ft 17 kts 113°
2026-05-01 14:23 56.16996 92.51501 950 ft 20 kts 113°
2026-05-01 14:23 56.16940 92.51735 951 ft 20 kts 113°
2026-05-01 14:24 56.16902 92.51899 951 ft 10 kts 113°
2026-05-01 14:24 56.16896 92.51918 951 ft 1 kts 120°
2026-05-01 14:24 56.16870 92.51954 951 ft 5 kts 161°
2026-05-01 14:24 56.16839 92.51972 951 ft 4 kts 160°
2026-05-01 14:25 56.16813 92.51989 951 ft 5 kts 160°
2026-05-01 14:25 56.16786 92.52006 951 ft 4 kts 161°
2026-05-01 14:25 56.16785 92.52007 951 ft 0 kts 161°
2026-05-01 14:27 56.16752 92.52027 952 ft 16 kts 160°
2026-05-01 14:27 56.16660 92.51985 952 ft 16 kts 269°
2026-05-01 14:28 56.16677 92.51903 953 ft 0 kts 295°
2026-05-01 14:29 56.16680 92.51890 953 ft 8 kts 294°
2026-05-01 14:29 56.16821 92.51303 951 ft 92 kts 293°
2026-05-01 14:30 56.18098 92.45951 2152 ft 173 kts 293°
2026-05-01 14:30 56.18593 92.43875 2703 ft 191 kts 293°
2026-05-01 14:30 56.19147 92.41534 3090 ft 216 kts 292°
2026-05-01 14:31 56.20449 92.36026 4099 ft 260 kts 292°
2026-05-01 14:31 56.21165 92.32998 5007 ft 266 kts 293°
2026-05-01 14:31 56.21735 92.29831 5998 ft 269 kts 274°
2026-05-01 14:31 56.21535 92.26472 6688 ft 274 kts 255°
2026-05-01 14:32 56.20887 92.23272 6916 ft 272 kts 247°
2026-05-01 14:32 56.20347 92.21186 6974 ft 273 kts 245°
2026-05-01 14:32 56.19249 92.17141 7006 ft 272 kts 245°
2026-05-01 14:32 56.18452 92.14061 7006 ft 272 kts 247°
2026-05-01 14:33 56.17698 92.10959 7001 ft 271 kts 248°
2026-05-01 14:33 56.16975 92.07817 7088 ft 275 kts 249°
2026-05-01 14:33 56.16270 92.04625 8082 ft 275 kts 250°
2026-05-01 14:33 56.15572 92.01415 9121 ft 277 kts 250°
2026-05-01 14:34 56.14870 91.98173 10105 ft 281 kts 251°
2026-05-01 14:34 56.14142 91.94792 10574 ft 303 kts 251°
2026-05-01 14:34 56.13357 91.91138 10907 ft 326 kts 251°
2026-05-01 14:34 56.12523 91.87285 11561 ft 336 kts 251°
2026-05-01 14:35 56.11665 91.83356 12368 ft 340 kts 251°
2026-05-01 14:35 56.10795 91.79381 13201 ft 344 kts 251°
2026-05-01 14:35 56.09916 91.75368 14021 ft 348 kts 251°
2026-05-01 14:35 56.09029 91.71317 14738 ft 352 kts 252°
2026-05-01 14:36 56.08130 91.67221 15473 ft 355 kts 252°
2026-05-01 14:36 56.07224 91.63105 16189 ft 358 kts 252°
2026-05-01 14:36 56.06307 91.58943 16905 ft 361 kts 252°
2026-05-01 14:36 56.05381 91.54739 17605 ft 364 kts 252°
2026-05-01 14:37 56.04449 91.50505 18312 ft 368 kts 252°
2026-05-01 14:37 56.03824 91.47676 18714 ft 370 kts 252°
2026-05-01 14:37 56.02872 91.43373 19322 ft 374 kts 252°
2026-05-01 14:37 56.01912 91.39036 19934 ft 377 kts 252°
2026-05-01 14:38 56.00939 91.34670 20548 ft 380 kts 252°
2026-05-01 14:38 55.99951 91.30259 21153 ft 384 kts 252°
2026-05-01 14:38 55.98955 91.25816 21758 ft 387 kts 252°
2026-05-01 14:38 55.98146 91.21239 22336 ft 387 kts 261°
2026-05-01 14:39 55.97596 91.16529 22905 ft 390 kts 262°
2026-05-01 14:39 55.97045 91.11763 23455 ft 393 kts 262°
2026-05-01 14:39 55.96488 91.06974 23941 ft 396 kts 262°
2026-05-01 14:39 55.95921 91.02143 24400 ft 398 kts 262°
2026-05-01 14:40 55.95346 90.97292 24855 ft 401 kts 262°
2026-05-01 14:40 55.94766 90.92424 25301 ft 403 kts 262°
2026-05-01 14:40 55.94179 90.87521 25733 ft 405 kts 262°
2026-05-01 14:40 55.93587 90.82600 26150 ft 407 kts 262°
2026-05-01 14:41 55.92990 90.77654 26585 ft 409 kts 262°
2026-05-01 14:41 55.92391 90.72685 26989 ft 411 kts 262°
2026-05-01 14:41 55.91791 90.67732 27707 ft 404 kts 262°
2026-05-01 14:41 55.91206 90.62965 28925 ft 387 kts 262°
2026-05-01 14:42 55.90636 90.58317 29707 ft 383 kts 262°
2026-05-01 14:42 55.90069 90.53676 30247 ft 383 kts 262°
2026-05-01 14:42 55.89502 90.49036 30714 ft 382 kts 262°
2026-05-01 14:42 55.88936 90.44425 31217 ft 381 kts 263°
2026-05-01 14:43 55.88371 90.39828 31730 ft 379 kts 263°
2026-05-01 14:43 55.87803 90.35241 32252 ft 378 kts 263°
2026-05-01 14:43 55.87234 90.30686 32516 ft 374 kts 263°
2026-05-01 14:43 55.86669 90.26182 32124 ft 372 kts 263°
2026-05-01 14:44 55.86104 90.21673 32088 ft 375 kts 263°
2026-05-01 14:44 55.84391 90.08043 32100 ft 377 kts 262°
2026-05-01 14:45 55.82693 89.94732 32100 ft 366 kts 262°
2026-05-01 14:46 55.81567 89.85927 32091 ft 365 kts 262°
2026-05-01 14:46 55.79870 89.72724 32096 ft 365 kts 262°
2026-05-01 14:47 55.78724 89.63938 32090 ft 365 kts 262°
2026-05-01 14:48 55.76999 89.50771 32085 ft 365 kts 262°
2026-05-01 14:48 55.75256 89.37630 32077 ft 364 kts 262°
2026-05-01 14:49 55.72919 89.20135 32075 ft 364 kts 262°
2026-05-01 14:50 55.71933 89.12796 32099 ft 378 kts 262°
2026-05-01 14:50 55.70448 89.01818 32092 ft 405 kts 261°
2026-05-01 14:51 55.68398 88.86777 32091 ft 427 kts 261°
2026-05-01 14:52 55.66294 88.71442 32093 ft 430 kts 260°
2026-05-01 14:53 55.64155 88.56008 32093 ft 430 kts 260°
2026-05-01 14:53 55.62706 88.45728 32088 ft 430 kts 260°
2026-05-01 14:54 55.61262 88.35466 32080 ft 430 kts 259°
2026-05-01 14:54 55.59811 88.25224 32088 ft 428 kts 259°
2026-05-01 14:55 55.58358 88.15034 32096 ft 427 kts 259°
2026-05-01 14:55 55.56902 88.04869 32093 ft 426 kts 259°
2026-05-01 14:56 55.55441 87.94733 32087 ft 425 kts 259°
2026-05-01 14:56 55.53970 87.84620 32080 ft 425 kts 259°
2026-05-01 14:57 55.52487 87.74513 32070 ft 425 kts 259°
2026-05-01 14:57 55.50249 87.59370 32059 ft 425 kts 258°
2026-05-01 14:58 55.48749 87.49277 32059 ft 425 kts 258°
2026-05-01 14:58 55.47229 87.39193 32054 ft 426 kts 258°
2026-05-01 14:59 55.45696 87.29120 32053 ft 426 kts 258°
2026-05-01 14:59 55.44162 87.19041 32044 ft 426 kts 258°
2026-05-01 15:00 55.41842 87.03915 32040 ft 427 kts 258°
2026-05-01 15:01 55.40286 86.93839 32040 ft 427 kts 257°
2026-05-01 15:01 55.38719 86.83765 32049 ft 427 kts 257°
2026-05-01 15:02 55.37150 86.73772 32037 ft 427 kts 257°
2026-05-01 15:02 55.35561 86.63715 32040 ft 427 kts 257°
2026-05-01 15:03 55.33965 86.53658 32044 ft 428 kts 257°
2026-05-01 15:03 55.32360 86.43608 32044 ft 428 kts 257°
2026-05-01 15:04 55.30743 86.33551 32042 ft 428 kts 257°
2026-05-01 15:04 55.29122 86.23503 32045 ft 428 kts 256°
2026-05-01 15:05 55.27496 86.13456 32045 ft 428 kts 257°
2026-05-01 15:05 55.26698 86.03174 32047 ft 426 kts 267°
2026-05-01 15:06 55.26213 85.92849 32070 ft 424 kts 266°
2026-05-01 15:06 55.25714 85.82574 32070 ft 422 kts 266°
2026-05-01 15:07 55.25202 85.72329 32060 ft 421 kts 266°
2026-05-01 15:07 55.24685 85.62098 32051 ft 421 kts 266°
2026-05-01 15:08 55.24160 85.51880 32042 ft 421 kts 265°
2026-05-01 15:08 55.23626 85.41689 32032 ft 420 kts 265°
2026-05-01 15:09 55.23095 85.31485 32026 ft 420 kts 265°
2026-05-01 15:09 55.22556 85.21291 32019 ft 420 kts 265°
2026-05-01 15:10 55.22002 85.11104 32014 ft 420 kts 265°
2026-05-01 15:10 55.21152 84.95837 32010 ft 420 kts 265°
2026-05-01 15:11 55.20279 84.80567 32000 ft 420 kts 264°
2026-05-01 15:12 55.19607 84.70404 31800 ft 419 kts 259°
2026-05-01 15:12 55.17906 84.60657 29959 ft 422 kts 251°
2026-05-01 15:12 55.16937 84.55800 28837 ft 424 kts 251°
2026-05-01 15:13 55.14069 84.41384 26508 ft 414 kts 251°
2026-05-01 15:14 55.12222 84.32062 25318 ft 403 kts 251°
2026-05-01 15:14 55.11304 84.27439 24477 ft 404 kts 250°
2026-05-01 15:14 55.09440 84.18105 22565 ft 410 kts 250°
2026-05-01 15:15 55.07544 84.08676 20623 ft 412 kts 250°
2026-05-01 15:15 55.05635 83.99218 18724 ft 414 kts 250°
2026-05-01 15:16 55.03708 83.89760 16867 ft 415 kts 250°
2026-05-01 15:16 55.01810 83.80479 16047 ft 389 kts 250°
2026-05-01 15:17 55.00056 83.71977 15522 ft 363 kts 250°
2026-05-01 15:18 54.97555 83.59962 14107 ft 329 kts 250°
2026-05-01 15:18 54.96775 83.56234 13970 ft 328 kts 249°
2026-05-01 15:19 54.94418 83.45005 13992 ft 331 kts 249°
2026-05-01 15:19 54.92840 83.37519 13983 ft 329 kts 249°
2026-05-01 15:19 54.92052 83.33788 13980 ft 329 kts 249°
2026-05-01 15:20 54.90475 83.26322 13980 ft 329 kts 249°
2026-05-01 15:20 54.89684 83.22607 13702 ft 326 kts 249°
2026-05-01 15:20 54.88908 83.18973 13523 ft 315 kts 249°
2026-05-01 15:21 54.88169 83.15511 13349 ft 296 kts 249°
2026-05-01 15:21 54.87471 83.12226 12859 ft 289 kts 250°
2026-05-01 15:21 54.87005 83.08849 12553 ft 287 kts 261°
2026-05-01 15:21 54.86923 83.05397 12214 ft 287 kts 271°
2026-05-01 15:22 54.87589 82.98553 11462 ft 287 kts 278°
2026-05-01 15:22 54.87960 82.95154 11089 ft 286 kts 277°
2026-05-01 15:22 54.88329 82.91753 10729 ft 285 kts 277°
2026-05-01 15:23 54.88693 82.88373 10346 ft 285 kts 277°
2026-05-01 15:23 54.89055 82.84994 9968 ft 284 kts 277°
2026-05-01 15:23 54.89414 82.81628 9567 ft 283 kts 277°
2026-05-01 15:23 54.89768 82.78270 9139 ft 282 kts 277°
2026-05-01 15:24 54.90002 82.76049 8877 ft 282 kts 277°
2026-05-01 15:24 54.90356 82.72707 8444 ft 281 kts 277°
2026-05-01 15:24 54.90704 82.69364 8033 ft 280 kts 274°
2026-05-01 15:24 54.90684 82.66039 7609 ft 274 kts 260°
2026-05-01 15:25 54.90433 82.62749 7172 ft 274 kts 258°
2026-05-01 15:25 54.90166 82.59483 6750 ft 273 kts 258°
2026-05-01 15:25 54.89901 82.56212 6326 ft 273 kts 258°
2026-05-01 15:25 54.89640 82.52957 6026 ft 271 kts 258°
2026-05-01 15:26 54.89386 82.49700 6001 ft 273 kts 258°
2026-05-01 15:26 54.89131 82.46417 6002 ft 274 kts 258°
2026-05-01 15:26 54.88874 82.43131 6005 ft 274 kts 258°
2026-05-01 15:26 54.88621 82.39855 6002 ft 274 kts 258°
2026-05-01 15:27 54.88369 82.36574 6000 ft 274 kts 258°
2026-05-01 15:27 54.88120 82.33299 6001 ft 274 kts 258°
2026-05-01 15:27 54.87870 82.30014 5998 ft 274 kts 258°
2026-05-01 15:28 54.87358 82.23301 5994 ft 284 kts 258°
2026-05-01 15:28 54.87098 82.19904 5986 ft 284 kts 258°
2026-05-01 15:28 54.86839 82.16501 5986 ft 284 kts 258°
2026-05-01 15:29 54.86339 82.09746 5258 ft 281 kts 258°
2026-05-01 15:29 54.86103 82.06374 4789 ft 281 kts 258°
2026-05-01 15:29 54.86238 81.99658 3998 ft 291 kts 290°
2026-05-01 15:30 54.88659 81.95571 3978 ft 304 kts 336°
2026-05-01 15:31 54.97770 81.94183 3965 ft 305 kts 358°
2026-05-01 15:31 55.02013 81.93852 3972 ft 305 kts 358°
2026-05-01 15:32 55.06238 81.93949 3965 ft 302 kts 19°
2026-05-01 15:32 55.09195 81.98270 3742 ft 264 kts 74°
2026-05-01 15:33 55.08390 82.06373 3168 ft 216 kts 118°
2026-05-01 15:34 55.06635 82.13379 2376 ft 202 kts 119°